Location: Moscow
(55.7500°N, 37.5830°E)
Time: 08:53:51
(UTC+03:00)

N. Korean satellite - Pass Details

Date: 26 October 2021
Orbit: 446 x 495 km, 97.3° (Epoch: 04 December)

Event Time Altitude Azimuth Distance (km) Brightness Sun altitude
Rises 18:16:05 0° 221° (SW) 2,551 11.0 -10.8°
Maximum altitude 18:20:38 11° 275° (W) 1,646 10.7 -11.4°
Drops below altitude 10° 18:21:35 10° 290° (WNW) 1,699 10.4 -11.6°
Sets 18:25:17 0° 330° (NNW) 2,597 10.6 -12.1°
